RS5S

Last updated on Sun Aug 28 2022 00:02:06 GMT+0000 (Coordinated Universal Time)

1 53310U 98067TV 22239.46287223 .00027745 00000+0 45156-3 0 9992 2 53310 51.6429 343.1676 0001471 175.6779 184.4223 15.52440076 5762
UTC large
Height (km)
Speed (km/s)
/
Latitude / Longitude
Inclination (degrees)
Orbital Period (minutes)
Azimuth
Elevation
Range (km)
Doppler Factor

Next 0 passes for location: London (51.5072 / 0.1276)

Sorry there are no passes over London.
RS5S